sat.trackr.live / text

‹ back to catalog

STARLINK-30921

NORAD 58383 · 2023-178K

PAYLOAD ACTIVE UNKNOWN

§ Identity

Operator
Country
US
Launch date
2023-11-20
Launch site
AFWTR
Launch vehicle
Mass (kg)
RCS (m²)

Purposes: comms

External: N2YO · Heavens-Above · Gunter

§ Orbital elements

Epoch: 2026-05-24T23:41:32.744256Z

Period
93.85 min
Inclination
53.1617°
Eccentricity
0.0001195
Mean motion
15.34390384 rev/d
Perigee alt
461.9 km
Apogee alt
463.5 km
Semi-major
6,840.9 km
B*
3.6541e-5
RAAN
5.9209°
Arg perigee
84.1859°
Mean anomaly
275.9280°
Rev number
14,156

§ Raw data

STARLINK-309211 58383U 23178K   26144.98718454  .00000858  00000+0  36541-4 0  99942 58383  53.1617   5.9209 0001195  84.1859 275.9280 15.34390384141568

JSON: /api/v1/satellites/58383 · /tle

For live sub-satellite position, see the globe view (requires WebGL).

§ Visibility from observer

Set your observer location to see the next 7 days of passes ≥ 10°. The values pass through the URL so the page stays shareable.

No JS? Fill the form by hand. The geolocation button needs JavaScript.